TimeMST,TemperatureF,Dew PointF,Humidity,Sea Level PressureIn,VisibilityMPH,Wind Direction,Wind SpeedMPH,Gust SpeedMPH,PrecipitationIn,Events,Conditions,WindDirDegrees,DateUTC
12:52 AM,26.1,7.0,44,30.14,10.0,Calm,Calm,-,N/A,,Clear,0,2012-12-12 07:52:00
1:52 AM,21.9,6.1,51,30.16,10.0,ESE,3.5,-,N/A,,Clear,110,2012-12-12 08:52:00
2:52 AM,24.1,6.1,46,30.14,10.0,Calm,Calm,-,N/A,,Clear,0,2012-12-12 09:52:00
3:52 AM,25.0,8.1,49,30.14,10.0,NW,4.6,-,N/A,,Clear,320,2012-12-12 10:52:00
4:52 AM,24.1,9.0,53,30.15,10.0,North,5.8,-,N/A,,Clear,360,2012-12-12 11:52:00
5:52 AM,24.1,9.0,53,30.16,10.0,NNE,4.6,-,N/A,,Clear,20,2012-12-12 12:52:00
6:52 AM,21.0,8.1,57,30.18,10.0,NW,3.5,-,N/A,,Clear,320,2012-12-12 13:52:00
7:52 AM,23.0,7.0,50,30.19,10.0,NNE,4.6,-,N/A,,Clear,20,2012-12-12 14:52:00
8:52 AM,27.0,8.1,45,30.20,10.0,North,3.5,-,N/A,,Clear,10,2012-12-12 15:52:00
9:52 AM,33.1,9.0,37,30.20,10.0,Calm,Calm,-,N/A,,Clear,0,2012-12-12 16:52:00
10:52 AM,39.0,9.0,29,30.19,10.0,Calm,Calm,-,N/A,,Clear,0,2012-12-12 17:52:00
11:52 AM,39.9,8.1,27,30.16,10.0,Calm,Calm,-,N/A,,Partly Cloudy,0,2012-12-12 18:52:00
12:52 PM,43.0,7.0,23,30.11,10.0,South,6.9,-,N/A,,Partly Cloudy,180,2012-12-12 19:52:00
1:52 PM,45.0,7.0,21,30.10,10.0,South,6.9,-,N/A,,Partly Cloudy,170,2012-12-12 20:52:00
2:52 PM,46.0,7.0,20,30.08,10.0,South,4.6,-,N/A,,Partly Cloudy,180,2012-12-12 21:52:00
3:52 PM,46.9,6.1,19,30.07,10.0,South,5.8,-,N/A,,Scattered Clouds,180,2012-12-12 22:52:00
4:52 PM,45.0,6.1,20,30.08,10.0,WSW,3.5,-,N/A,,Scattered Clouds,250,2012-12-12 23:52:00
5:52 PM,44.1,7.0,22,30.10,10.0,Calm,Calm,-,N/A,,Partly Cloudy,0,2012-12-13 00:52:00
6:52 PM,39.0,5.0,24,30.14,10.0,ESE,3.5,-,N/A,,Partly Cloudy,110,2012-12-13 01:52:00
7:52 PM,36.0,5.0,27,30.15,10.0,East,4.6,-,N/A,,Partly Cloudy,100,2012-12-13 02:52:00
8:52 PM,37.0,6.1,28,30.15,10.0,East,4.6,-,N/A,,Clear,80,2012-12-13 03:52:00
9:52 PM,36.0,7.0,30,30.14,10.0,NNW,3.5,-,N/A,,Clear,340,2012-12-13 04:52:00
10:52 PM,35.1,7.0,31,30.12,10.0,North,5.8,-,N/A,,Clear,10,2012-12-13 05:52:00
11:52 PM,33.1,7.0,34,30.13,10.0,Calm,Calm,-,N/A,,Clear,0,2012-12-13 06:52:00